Wind_Speed
28 36 25 22 25 26 23 18 15 14 13 18 21 23 23 20 17 15 12 9 8 9 9 9 10 13 17 17 18 23 22 22
33 32 31 25 26 30 29 23 20 18 15 17 23 25 25 23 21 18 15 12 10 10 10 9 9 11 16 18 19 22 21 21
30 31 35 32 27 29 35 29 25 26 21 19 24 27 28 28 24 22 19 15 13 12 12 11 10 11 14 17 20 21 21 22
33 33 36 35 33 33 32 37 33 30 26 24 22 28 29 30 28 26 23 20 17 15 14 13 12 12 12 13 16 21 22 21
37 36 33 29 31 34 36 39 40 35 31 27 25 28 33 33 33 31 28 25 21 18 17 16 14 13 13 11 11 19 22 22
26 29 32 34 32 26 31 37 43 42 36 31 29 28 34 36 37 35 32 28 24 21 19 18 16 15 13 11 12 11 16 21
26 37 37 36 34 35 29 28 38 45 41 37 33 32 31 36 39 38 36 32 28 25 22 21 19 17 15 13 13 12 12 16
35 30 34 41 42 39 37 32 30 41 46 41 38 35 33 33 40 41 40 36 33 29 25 23 22 20 16 14 14 14 13 14
47 41 39 37 40 47 44 41 38 35 42 46 43 39 37 34 38 43 44 41 37 34 30 27 26 24 20 17 15 15 14 13
38 45 46 47 48 43 49 47 45 42 38 44 48 44 41 39 38 44 46 45 42 38 35 32 29 27 24 22 18 16 17 17
43 41 40 42 48 50 50 48 53 49 43 42 47 49 45 43 40 43 48 49 46 43 40 36 33 30 27 25 22 19 19 19
41 45 47 42 38 54 51 48 50 51 52 50 43 48 50 47 44 45 51 54 51 48 45 41 37 32 30 28 25 23 21 21
51 52 48 53 46 38 46 50 49 54 52 55 53 44 51 52 49 48 52 57 55 51 49 45 42 38 36 33 31 28 26 25
45 53 58 58 56 47 41 48 50 53 55 56 57 51 52 57 54 51 52 58 59 55 54 51 47 45 41 39 38 35 32 30
47 44 55 65 67 64 53 43 52 53 58 57 57 58 56 57 57 54 52 58 61 60 57 56 53 49 47 45 45 41 35 34
48 58 50 50 63 74 70 49 58 51 62 56 60 65 57 58 61 59 54 56 62 63 60 58 56 55 51 49 44 40 38 35
34 43 58 56 56 61 72 76 54 66 62 39 39 62 63 56 65 61 58 57 61 64 64 61 60 58 55 52 48 46 40 36
29 33 37 58 57 54 58 56 74 64 63 70 36 66 65 61 62 65 59 57 58 63 65 63 62 60 56 53 51 50 44 40
34 27 24 38 53 49 53 52 52 74 74 50 59 31 58 65 61 67 69 61 57 62 66 66 62 61 57 55 52 49 43 39
34 27 26 26 35 40 42 36 47 51 68 65 55 60 51 38 67 69 73 65 63 61 66 67 64 61 59 57 52 49 48 44
Wind_Direction
271 277 276 244 240 240 231 232 238 233 240 227 217 213 209 205 201 199 196 187 183 190 176 176 181 180 179 174 165 158 164 164
267 265 271 252 248 240 239 228 237 235 228 232 222 216 212 208 204 203 201 193 190 196 182 177 179 181 188 183 170 171 169 168
259 260 264 268 256 248 244 228 230 239 228 225 226 221 216 211 207 207 205 199 195 198 192 177 183 182 190 185 183 177 177 177
254 255 260 266 264 256 249 241 233 231 234 228 232 226 220 215 210 209 207 203 201 198 197 184 186 193 194 192 189 190 183 186
268 262 263 271 268 257 253 244 238 234 234 234 233 231 223 216 212 211 208 206 205 201 201 190 189 201 205 184 177 194 193 192
265 262 258 256 257 258 256 249 243 236 234 235 236 237 230 222 217 214 212 209 208 205 203 197 192 202 211 192 179 173 199 195
254 259 260 257 256 257 245 258 247 239 235 235 238 239 239 231 221 217 215 211 210 208 204 203 197 203 213 200 183 173 182 191
243 243 256 260 255 252 254 246 251 245 238 234 236 239 240 236 227 220 217 213 211 210 208 207 203 202 213 208 193 182 189 188
243 245 246 244 256 255 253 249 242 242 244 236 234 236 238 237 233 225 220 215 211 210 207 207 206 203 203 216 201 188 194 198
248 248 247 245 247 245 252 251 247 237 239 241 235 234 236 237 233 228 221 216 212 211 210 209 207 206 202 209 210 194 193 202
244 248 246 249 244 245 239 244 249 245 238 241 237 235 233 236 235 230 223 219 214 212 212 212 211 210 205 210 211 202 195 205
248 243 245 245 252 243 243 239 240 246 242 237 237 235 234 232 234 229 224 220 215 212 213 211 213 212 211 210 212 208 201 203
266 247 245 245 246 250 244 239 235 236 244 241 233 232 234 231 231 230 224 221 218 214 214 211 213 209 213 210 212 212 207 204
269 262 251 249 248 247 247 243 238 233 234 236 237 230 227 231 230 231 225 222 218 215 214 213 212 213 212 214 213 211 212 208
271 264 254 250 253 249 252 242 240 241 234 235 235 233 228 229 230 230 227 223 220 216 215 214 213 212 214 218 212 213 214 215
266 267 263 252 252 253 250 248 237 241 239 225 239 228 228 227 227 229 229 225 220 219 217 216 216 216 215 217 222 227 221 217
287 265 257 254 255 252 253 249 243 236 252 248 202 237 222 224 226 227 228 226 223 219 218 218 218 219 218 221 221 221 220 227
316 285 268 255 259 249 254 253 246 253 254 242 241 240 220 223 224 227 225 227 225 221 219 220 221 220 220 221 226 227 221 223
345 324 289 260 263 260 257 258 253 245 248 257 262 248 240 215 225 225 224 222 225 223 219 219 221 223 221 221 225 228 229 231
6 351 327 297 266 263 260 261 259 261 244 250 261 243 231 232 229 227 225 223 223 222 220 219 221 222 221 223 225 228 230 234
Height
3162 3163 3165 3165 3165 3165 3165 3165 3165 3165 3165 3165 3166 3167 3169 3172 3174 3175 3176 3177 3177 3178 3178 3178 3180 3181 3183 3185 3187 3189 3192 3194
3157 3159 3158 3161 3161 3161 3162 3162 3163 3163 3163 3163 3164 3165 3167 3169 3172 3173 3174 3175 3176 3177 3178 3178 3180 3181 3183 3184 3187 3189 3191 3193
3150 3153 3153 3154 3157 3157 3158 3157 3158 3160 3158 3160 3161 3163 3164 3166 3170 3171 3173 3174 3175 3176 3178 3178 3180 3181 3182 3184 3187 3190 3192 3194
3144 3146 3147 3147 3150 3152 3152 3154 3153 3154 3155 3155 3157 3160 3162 3164 3167 3169 3170 3171 3173 3174 3177 3177 3180 3181 3182 3183 3187 3190 3192 3194
3137 3139 3140 3141 3142 3144 3145 3147 3149 3149 3151 3152 3154 3155 3157 3159 3162 3165 3168 3169 3170 3172 3175 3176 3178 3180 3182 3184 3186 3189 3191 3194
3129 3130 3132 3131 3133 3134 3137 3139 3143 3144 3145 3148 3149 3151 3152 3155 3158 3161 3165 3167 3169 3171 3173 3174 3176 3179 3181 3184 3186 3189 3191 3194
3116 3122 3123 3125 3126 3127 3128 3132 3134 3137 3140 3142 3144 3146 3147 3150 3153 3157 3161 3164 3166 3168 3170 3172 3174 3177 3179 3183 3185 3188 3191 3193
3104 3105 3113 3115 3117 3119 3121 3122 3125 3129 3132 3136 3138 3140 3142 3145 3148 3151 3155 3160 3163 3166 3168 3171 3172 3175 3177 3181 3183 3187 3190 3192
3096 3095 3096 3097 3103 3110 3112 3114 3116 3118 3124 3128 3130 3132 3135 3139 3142 3146 3150 3154 3158 3161 3164 3168 3170 3172 3176 3178 3182 3185 3188 3191
3089 3086 3086 3087 3089 3090 3099 3103 3106 3108 3112 3117 3121 3124 3127 3131 3134 3139 3143 3147 3153 3156 3160 3163 3166 3169 3173 3175 3180 3183 3186 3189
3080 3078 3077 3076 3079 3080 3080 3087 3095 3098 3101 3104 3110 3115 3119 3122 3127 3131 3135 3140 3145 3151 3154 3158 3162 3165 3169 3173 3177 3181 3183 3187
3069 3070 3067 3067 3067 3070 3073 3075 3080 3087 3091 3094 3100 3105 3111 3114 3118 3121 3127 3131 3136 3141 3147 3152 3157 3162 3165 3168 3173 3177 3180 3183
3057 3057 3057 3055 3058 3059 3062 3063 3068 3072 3077 3084 3086 3093 3099 3103 3107 3111 3116 3121 3127 3134 3140 3145 3150 3154 3158 3162 3166 3171 3175 3178
3044 3045 3047 3044 3044 3048 3049 3054 3055 3055 3063 3066 3074 3080 3084 3090 3097 3101 3106 3112 3118 3124 3129 3134 3141 3145 3150 3155 3157 3162 3168 3172
3025 3027 3032 3034 3029 3031 3036 3041 3044 3045 3049 3053 3056 3065 3071 3079 3087 3092 3097 3102 3107 3114 3120 3124 3131 3137 3141 3147 3147 3152 3160 3165
3013 3008 3013 3016 3016 3017 3020 3026 3028 3030 3026 3026 3045 3048 3057 3066 3073 3080 3088 3092 3097 3105 3112 3117 3122 3126 3132 3138 3145 3151 3153 3159
3000 2997 2994 2997 3001 3002 3003 3011 3015 3013 3011 2997 3011 3032 3036 3047 3059 3068 3075 3080 3087 3094 3101 3108 3112 3119 3123 3130 3136 3141 3147 3152
2992 2986 2984 2981 2983 2991 2989 2991 3005 3009 3002 3000 3003 3016 2993 3033 3045 3054 3062 3070 3076 3084 3091 3099 3104 3109 3118 3122 3128 3132 3139 3145
2988 2980 2976 2973 2971 2974 2978 2982 2990 2995 3003 3003 3001 2996 3001 3010 3030 3036 3042 3053 3061 3072 3080 3088 3094 3100 3108 3113 3120 3127 3136 3140
2991 2979 2969 2965 2961 2962 2966 2969 2969 2978 2990 2996 3001 2991 2997 2992 3010 3018 3028 3045 3051 3055 3068 3077 3084 3091 3099 3105 3111 3119 3126 3131